Regional Weather Roundup
Issued by NWS

Home | Current Version | Previous Version | Graphics & Text | Print | Product List | Glossary On
Versions: 1 2 3 4 5 6 7 8 9 10 11 12 13 14 15 16 17 18 19 20 21 22 23 24 25 26 27 28 29 30 31 32 33 34 35 36 37 38 39 40 41 42 43 44 45 46 47 48 49 50
000
ASUS45 KPSR 301900
RWRAZ

ARIZONA HOURLY REGIONAL WEATHER ROUNDUP
NATIONAL WEATHER SERVICE PHOENIX AZ
1200 PM MST TUE JUN 30 2015

NOTE: FAIR INDICATES FEW OR NO CLOUDS BELOW 12,000 FEET WITH NO
SIGNIFICANT WEATHER AND/OR OBSTRUCTIONS TO VISIBILITY.

AZZ001>003-036-302000-
NORTHWEST ARIZONA

CITY           SKY/WX    TMP DP  RH WIND       PRES   REMARKS
KINGMAN        MOSUNNY   98  50  19 SW10G21   30.04F
$$

AZZ004>008-015-016-018-302000-
NORTH CENTRAL ARIZONA

CITY           SKY/WX    TMP DP  RH WIND       PRES   REMARKS
GRAND CANYON   MOSUNNY   85  49  28 SW8       30.27S
WILLIAMS       MOSUNNY   84  48  28 VRB6G15   30.36F
PRESCOTT       MOSUNNY   88  51  28 S5        30.17F
FLAGSTAFF      NOT AVBL
PAYSON         SUNNY     88  52  29 VRB6G12   30.19F
PAGE           SUNNY     98  43  15 VRB3      30.04F
$$

AZZ009>014-017-302000-
NORTHEAST ARIZONA

CITY           SKY/WX    TMP DP  RH WIND       PRES   REMARKS
WINSLOW        NOT AVBL
SAINT JOHNS    SUNNY     89  48  24 VRB5      30.17F
WINDOW ROCK    SUNNY     87  46  24 VRB7      30.27F
SHOW LOW       SUNNY     82  45  26 S5        30.26F
$$

AZZ023-302000-
GREATER PHOENIX AREA

CITY           SKY/WX    TMP DP  RH WIND       PRES   REMARKS
PHOENIX        PTSUNNY   99  60  27 W17G25    29.88F
GLENDALE       MOSUNNY  100  63  28 SW12G18   29.90F HX 102
DEER VALLEY    SUNNY     98  60  28 SW9G17    29.90F
SCOTTSDALE     SUNNY     97  60  29 W7        29.92F
MESA-FALCON    MOSUNNY   97  61  30 SW12G23   29.90F
MESA-GATEWAY   MOSUNNY   99  63  30 NW13G22   29.92F HX 100
CHANDLER       MOSUNNY   99  61  28 NW14      29.89F
$$

AZZ027-028-302000-
SOUTHWEST MARICOPA COUNTY AND PINAL COUNTY

CITY           SKY/WX    TMP DP  RH WIND       PRES   REMARKS
CASA GRANDE    SUNNY     99  63  30 W7        29.90F HX 100
$$

AZZ503-504-507>509-302000-
SOUTHEAST ARIZONA

CITY           SKY/WX    TMP DP  RH WIND       PRES   REMARKS
TUCSON         PTSUNNY   95  61  32 N10G21    30.01F
RYAN FIELD     SUNNY     91  66  43 W9        30.01F
NOGALES        SUNNY     91  59  33 SW8       30.07F
SAFFORD        SUNNY     95  51  22 VRB5      29.98F
$$

AZZ020-021-025-026-031-302000-
SOUTHWEST ARIZONA

CITY           SKY/WX    TMP DP  RH WIND       PRES   REMARKS
YUMA           PTSUNNY   87  68  52 W10G21    29.83F VSB 1/2
$$

CAZ031-033-041-043-047-048-061-302000-
SOUTHERN CALIFORNIA

CITY           SKY/WX    TMP DP  RH WIND       PRES   REMARKS
DOWNTOWN L.A.  SUNNY     89  60  37 CALM      29.88S
L.A. AIRPORT   MOSUNNY   75  64  68 W10       29.90S
SAN DIEGO      PTSUNNY   77  63  61 SW6       29.93R
BURBANK        SUNNY     89  57  33 S9        29.90S
ONTARIO        PTSUNNY   94  52  24 SW8       29.90F
RIVERSIDE      MOSUNNY   94  52  24 VRB6      29.89F
PALM SPRINGS   SUNNY    100  66  32 E12       29.89R HX 104
EL CENTRO NAS  CLOUDY   103  63  27 SE17      29.87R HX 105
IMPERIAL       CLOUDY   104  61  24 SE22G28   29.85R HX 105
BLYTHE         MOSUNNY  101  66  31 S24G35    29.87S HX 105
$$

NVZ020-UTZ003-302000-
SOUTHERN NEVADA-UTAH

CITY           SKY/WX    TMP DP  RH WIND       PRES   REMARKS
LAS VEGAS      NOT AVBL
SALT LAKE CITY MOSUNNY   95  55  26 NW6       30.05S
$$

NMZ009-TXZ055-302000-
NEW MEXICO-WEST TEXAS

CITY           SKY/WX    TMP DP  RH WIND       PRES   REMARKS
ALBUQUERQUE    MOSUNNY   87  47  24 VRB3      30.20F
EL PASO        CLOUDY    85  57  38 E9        30.10F
$$


........................KEY........................
SKY/WX - SKY CONDITION/WEATHER
TMP    - TEMPERATURE IN FAHRENHEIT
DP     - DEW POINT IN FAHRENHEIT
RH     - RELATIVE HUMIDITY IN PERCENT
WIND   - DIRECTION AND SPEED IN MILES PER HOUR (MPH)
VRB    - VARIABLE WIND DIRECTION
PRES   - MEAN SEA LEVEL PRESSURE IN INCHES OF MERCURY
         F - FALLING PRESSURE   R - RISING PRESSURE
         S - STEADY PRESSURE
VSB    - VISIBILITY IN MILES
HX     - HEAT INDEX IN FAHRENHEIT
WCI    - WIND CHILL INDEX IN FAHRENHEIT
TC     - TEMPERATURE IN CELSIUS WHICH IS ALSO KNOWN AS
         TEMPERATURE IN CENTIGRADE
AFB    - AIR FORCE BASE
         LUKE AFB IS LUKE AIR FORCE BASE
         DAVIS-MONTHAN IS DAVIS-MONTHAN AIR FORCE BASE
NAS    - NAVAL AIR STATION
         EL CENTRO NAS IS EL CENTRO NAVAL AIR STATION
N/A    - NOT AVAILABLE



USA.gov is the U.S. government's official web portal to all federal, state and local government web resources and services.